This demonstration page uses our WeatherBlox Daily Observations layout. Learn more.

Left ArrowRight Arrow

Hourly Observations for August 9, 2021

Temp ( °F °C ) Dew Point ( °F °C ) Humidity (%) Winds ( mph kmh ) Pressure ( in mb ) Visibility ( mi km ) Precip ( " mm )
12:56 am 00:56 Clear 74 23.3 66 18.9 76 76 SSW 12 19 29.76 1008 10 16 0.00 0.00
1:56 am 01:56 Clear 72 22.2 65 18.3 79 79 SSW 9 15 29.75 1008 10 16 0.00 0.00
2:56 am 02:56 Clear 72 22.2 62 16.7 71 71 SSW 8 13 29.75 1007 10 16 0.00 0.00
3:56 am 03:56 Clear 72 22.2 61 16.1 68 68 SW 10 17 29.74 1007 9 14 0.00 0.00
4:56 am 04:56 Clear 71 21.7 60 15.6 68 68 SW 10 17 29.75 1007 9 14 0.00 0.00
5:56 am 05:56 Clear 69 20.6 59 15 70 70 SSW 8 13 29.76 1008 9 14 0.00 0.00
6:56 am 06:56 Sunny 68 20 59 15 73 73 SW 3 6 29.76 1008 7 11 0.00 0.00
7:56 am 07:56 Sunny 68 20 60 15.6 76 76 SSW 7 11 29.77 1008 7 11 0.00 0.00
8:56 am 08:56 Sunny 74 23.3 61 16.1 64 64 SSW 8 13 29.77 1008 7 11 0.00 0.00
9:56 am 09:56 Sunny 79 26.1 65 18.3 62 62 S 8 13 29.77 1008 9 14 0.00 0.00
10:56 am 10:56 Sunny 83 28.3 66 18.9 57 57 S 8 13 29.77 1008 9 14 0.00 0.00
11:56 am 11:56 Sunny 88 31.1 68 20 52 52 S 10 17 29.77 1008 9 14 0.00 0.00
12:56 pm 12:56 Sunny 91 32.8 65 18.3 42 42 SW 13 20 29.75 1008 9 14 0.00 0.00
1:56 pm 13:56 Sunny 92 33.3 69 20.6 47 47 SSW 14 22 29.75 1008 10 16 0.00 0.00
2:56 pm 14:56 Sunny 93 33.9 70 21.1 47 47 S 14 22 29.74 1007 10 16 0.00 0.00
3:56 pm 15:56 Sunny 95 35 71 21.7 46 46 S 16 26 29.72 1006 10 16 0.00 0.00
4:56 pm 16:56 Sunny 95 35 72 22.2 47 47 S 14 22 29.71 1006 10 16 0.00 0.00
5:56 pm 17:56 Sunny 94 34.4 72 22.2 49 49 S 13 20 29.70 1006 10 16 0.00 0.00
6:56 pm 18:56 Sunny 87 30.6 72 22.2 61 61 S 8 13 29.72 1006 10 16 0.00 0.00
7:56 pm 19:56 Sunny 85 29.4 69 20.6 59 59 S 8 13 29.74 1007 10 16 0.00 0.00
8:56 pm 20:56 Clear 88 31.1 65 18.3 46 46 SW 16 26 29.76 1008 10 16 0.00 0.00
9:56 pm 21:56 Hazy 83 28.3 65 18.3 55 55 SW 7 11 29.80 1009 5 8 0.00 0.00
10:56 pm 22:56 Clear 86 30 53 11.7 32 32 WNW 9 15 29.82 1010 10 16 0.00 0.00
11:56 pm 23:56 Clear 83 28.3 57 13.9 41 41 W 10 17 29.81 1010 10 16 0.00 0.00

Powered by AerisWeather